<?xml version="1.0"?>
<gpx xmlns="http://www.topografix.com/GPX/1/1" xmlns:xsi="http://www.w3.org/2001/XMLSchema-instance" version="1.1" creator="GPX RubyGem 1.0.0 -- http://dougfales.github.io/gpx/" xsi:schemaLocation="http://www.topografix.com/GPX/1/1 http://www.topografix.com/GPX/1/1/gpx.xsd">
  <metadata>
    <name/>
    <time>2026-05-10T21:25:55+00:00</time>
    <bound minlat="90.0" minlon="180.0" maxlat="-90.0" maxlon="-180.0"/>
  </metadata>
  <trk>
    <name/>
    <trkseg>
      <trkpt lat="48.769231" lon="13.631493">
        <time>1970-01-01T00:00:00+00:00</time>
        <ele>570.0</ele>
      </trkpt>
      <trkpt lat="48.769196" lon="13.631685">
        <time>1970-01-01T00:00:00+00:00</time>
        <ele>570.0</ele>
      </trkpt>
      <trkpt lat="48.769526" lon="13.631641">
        <time>1970-01-01T00:00:00+00:00</time>
        <ele>577.0</ele>
      </trkpt>
      <trkpt lat="48.769783" lon="13.631495">
        <time>1970-01-01T00:00:00+00:00</time>
        <ele>582.0</ele>
      </trkpt>
      <trkpt lat="48.769988" lon="13.631349">
        <time>1970-01-01T00:00:00+00:00</time>
        <ele>582.0</ele>
      </trkpt>
      <trkpt lat="48.770415" lon="13.630885">
        <time>1970-01-01T00:00:00+00:00</time>
        <ele>572.0</ele>
      </trkpt>
      <trkpt lat="48.770599" lon="13.630719">
        <time>1970-01-01T00:00:00+00:00</time>
        <ele>565.0</ele>
      </trkpt>
      <trkpt lat="48.770876" lon="13.630392">
        <time>1970-01-01T00:00:00+00:00</time>
        <ele>549.0</ele>
      </trkpt>
      <trkpt lat="48.771059" lon="13.630062">
        <time>1970-01-01T00:00:00+00:00</time>
        <ele>547.0</ele>
      </trkpt>
      <trkpt lat="48.77128" lon="13.629516">
        <time>1970-01-01T00:00:00+00:00</time>
        <ele>548.0</ele>
      </trkpt>
      <trkpt lat="48.771399" lon="13.629374">
        <time>1970-01-01T00:00:00+00:00</time>
        <ele>549.0</ele>
      </trkpt>
      <trkpt lat="48.77158" lon="13.629291">
        <time>1970-01-01T00:00:00+00:00</time>
        <ele>550.0</ele>
      </trkpt>
      <trkpt lat="48.771743" lon="13.629293">
        <time>1970-01-01T00:00:00+00:00</time>
        <ele>553.0</ele>
      </trkpt>
      <trkpt lat="48.77184" lon="13.629392">
        <time>1970-01-01T00:00:00+00:00</time>
        <ele>554.0</ele>
      </trkpt>
      <trkpt lat="48.77197" lon="13.62965">
        <time>1970-01-01T00:00:00+00:00</time>
        <ele>557.0</ele>
      </trkpt>
      <trkpt lat="48.772032" lon="13.629905">
        <time>1970-01-01T00:00:00+00:00</time>
        <ele>560.0</ele>
      </trkpt>
      <trkpt lat="48.772055" lon="13.630156">
        <time>1970-01-01T00:00:00+00:00</time>
        <ele>561.0</ele>
      </trkpt>
      <trkpt lat="48.772289" lon="13.630055">
        <time>1970-01-01T00:00:00+00:00</time>
        <ele>562.0</ele>
      </trkpt>
      <trkpt lat="48.772382" lon="13.630074">
        <time>1970-01-01T00:00:00+00:00</time>
        <ele>562.0</ele>
      </trkpt>
      <trkpt lat="48.772472" lon="13.63013">
        <time>1970-01-01T00:00:00+00:00</time>
        <ele>563.0</ele>
      </trkpt>
      <trkpt lat="48.772551" lon="13.630179">
        <time>1970-01-01T00:00:00+00:00</time>
        <ele>563.0</ele>
      </trkpt>
      <trkpt lat="48.772692" lon="13.630177">
        <time>1970-01-01T00:00:00+00:00</time>
        <ele>563.0</ele>
      </trkpt>
      <trkpt lat="48.77285" lon="13.630082">
        <time>1970-01-01T00:00:00+00:00</time>
        <ele>562.0</ele>
      </trkpt>
      <trkpt lat="48.772972" lon="13.629874">
        <time>1970-01-01T00:00:00+00:00</time>
        <ele>561.0</ele>
      </trkpt>
      <trkpt lat="48.773146" lon="13.629382">
        <time>1970-01-01T00:00:00+00:00</time>
        <ele>557.0</ele>
      </trkpt>
      <trkpt lat="48.773483" lon="13.628843">
        <time>1970-01-01T00:00:00+00:00</time>
        <ele>554.0</ele>
      </trkpt>
      <trkpt lat="48.773963" lon="13.628107">
        <time>1970-01-01T00:00:00+00:00</time>
        <ele>553.0</ele>
      </trkpt>
      <trkpt lat="48.774111" lon="13.627932">
        <time>1970-01-01T00:00:00+00:00</time>
        <ele>553.0</ele>
      </trkpt>
      <trkpt lat="48.774383" lon="13.627666">
        <time>1970-01-01T00:00:00+00:00</time>
        <ele>554.0</ele>
      </trkpt>
      <trkpt lat="48.774822" lon="13.627316">
        <time>1970-01-01T00:00:00+00:00</time>
        <ele>550.0</ele>
      </trkpt>
      <trkpt lat="48.775274" lon="13.627099">
        <time>1970-01-01T00:00:00+00:00</time>
        <ele>548.0</ele>
      </trkpt>
      <trkpt lat="48.775399" lon="13.627001">
        <time>1970-01-01T00:00:00+00:00</time>
        <ele>548.0</ele>
      </trkpt>
      <trkpt lat="48.775527" lon="13.626868">
        <time>1970-01-01T00:00:00+00:00</time>
        <ele>548.0</ele>
      </trkpt>
      <trkpt lat="48.775691" lon="13.626628">
        <time>1970-01-01T00:00:00+00:00</time>
        <ele>549.0</ele>
      </trkpt>
      <trkpt lat="48.775786" lon="13.62651">
        <time>1970-01-01T00:00:00+00:00</time>
        <ele>550.0</ele>
      </trkpt>
      <trkpt lat="48.775948" lon="13.626363">
        <time>1970-01-01T00:00:00+00:00</time>
        <ele>552.0</ele>
      </trkpt>
      <trkpt lat="48.776045" lon="13.626305">
        <time>1970-01-01T00:00:00+00:00</time>
        <ele>554.0</ele>
      </trkpt>
      <trkpt lat="48.776334" lon="13.626179">
        <time>1970-01-01T00:00:00+00:00</time>
        <ele>558.0</ele>
      </trkpt>
      <trkpt lat="48.77677" lon="13.626048">
        <time>1970-01-01T00:00:00+00:00</time>
        <ele>562.0</ele>
      </trkpt>
      <trkpt lat="48.778773" lon="13.625677">
        <time>1970-01-01T00:00:00+00:00</time>
        <ele>572.0</ele>
      </trkpt>
      <trkpt lat="48.778994" lon="13.625586">
        <time>1970-01-01T00:00:00+00:00</time>
        <ele>574.0</ele>
      </trkpt>
      <trkpt lat="48.779142" lon="13.625341">
        <time>1970-01-01T00:00:00+00:00</time>
        <ele>573.0</ele>
      </trkpt>
      <trkpt lat="48.77926" lon="13.625048">
        <time>1970-01-01T00:00:00+00:00</time>
        <ele>573.0</ele>
      </trkpt>
      <trkpt lat="48.779354" lon="13.624928">
        <time>1970-01-01T00:00:00+00:00</time>
        <ele>574.0</ele>
      </trkpt>
      <trkpt lat="48.779507" lon="13.624825">
        <time>1970-01-01T00:00:00+00:00</time>
        <ele>576.0</ele>
      </trkpt>
      <trkpt lat="48.779661" lon="13.624794">
        <time>1970-01-01T00:00:00+00:00</time>
        <ele>578.0</ele>
      </trkpt>
      <trkpt lat="48.779733" lon="13.624642">
        <time>1970-01-01T00:00:00+00:00</time>
        <ele>577.0</ele>
      </trkpt>
      <trkpt lat="48.77982" lon="13.624601">
        <time>1970-01-01T00:00:00+00:00</time>
        <ele>578.0</ele>
      </trkpt>
      <trkpt lat="48.780188" lon="13.624774">
        <time>1970-01-01T00:00:00+00:00</time>
        <ele>590.0</ele>
      </trkpt>
      <trkpt lat="48.780821" lon="13.625125">
        <time>1970-01-01T00:00:00+00:00</time>
        <ele>592.0</ele>
      </trkpt>
      <trkpt lat="48.780921" lon="13.625149">
        <time>1970-01-01T00:00:00+00:00</time>
        <ele>594.0</ele>
      </trkpt>
      <trkpt lat="48.781801" lon="13.624982">
        <time>1970-01-01T00:00:00+00:00</time>
        <ele>609.0</ele>
      </trkpt>
      <trkpt lat="48.782" lon="13.624896">
        <time>1970-01-01T00:00:00+00:00</time>
        <ele>608.0</ele>
      </trkpt>
      <trkpt lat="48.782167" lon="13.624868">
        <time>1970-01-01T00:00:00+00:00</time>
        <ele>608.0</ele>
      </trkpt>
      <trkpt lat="48.782663" lon="13.624688">
        <time>1970-01-01T00:00:00+00:00</time>
        <ele>608.0</ele>
      </trkpt>
      <trkpt lat="48.782825" lon="13.624559">
        <time>1970-01-01T00:00:00+00:00</time>
        <ele>606.0</ele>
      </trkpt>
      <trkpt lat="48.782946" lon="13.6245">
        <time>1970-01-01T00:00:00+00:00</time>
        <ele>606.0</ele>
      </trkpt>
      <trkpt lat="48.783047" lon="13.624545">
        <time>1970-01-01T00:00:00+00:00</time>
        <ele>606.0</ele>
      </trkpt>
      <trkpt lat="48.783099" lon="13.624688">
        <time>1970-01-01T00:00:00+00:00</time>
        <ele>608.0</ele>
      </trkpt>
      <trkpt lat="48.783156" lon="13.624733">
        <time>1970-01-01T00:00:00+00:00</time>
        <ele>609.0</ele>
      </trkpt>
      <trkpt lat="48.783527" lon="13.624799">
        <time>1970-01-01T00:00:00+00:00</time>
        <ele>609.0</ele>
      </trkpt>
      <trkpt lat="48.783691" lon="13.624871">
        <time>1970-01-01T00:00:00+00:00</time>
        <ele>608.0</ele>
      </trkpt>
      <trkpt lat="48.783862" lon="13.624982">
        <time>1970-01-01T00:00:00+00:00</time>
        <ele>607.0</ele>
      </trkpt>
      <trkpt lat="48.784" lon="13.625041">
        <time>1970-01-01T00:00:00+00:00</time>
        <ele>606.0</ele>
      </trkpt>
      <trkpt lat="48.784144" lon="13.625066">
        <time>1970-01-01T00:00:00+00:00</time>
        <ele>604.0</ele>
      </trkpt>
      <trkpt lat="48.784253" lon="13.625125">
        <time>1970-01-01T00:00:00+00:00</time>
        <ele>604.0</ele>
      </trkpt>
      <trkpt lat="48.784409" lon="13.625253">
        <time>1970-01-01T00:00:00+00:00</time>
        <ele>604.0</ele>
      </trkpt>
      <trkpt lat="48.784479" lon="13.625347">
        <time>1970-01-01T00:00:00+00:00</time>
        <ele>604.0</ele>
      </trkpt>
      <trkpt lat="48.784598" lon="13.625426">
        <time>1970-01-01T00:00:00+00:00</time>
        <ele>603.0</ele>
      </trkpt>
      <trkpt lat="48.784701" lon="13.625596">
        <time>1970-01-01T00:00:00+00:00</time>
        <ele>602.0</ele>
      </trkpt>
      <trkpt lat="48.784902" lon="13.626002">
        <time>1970-01-01T00:00:00+00:00</time>
        <ele>600.0</ele>
      </trkpt>
      <trkpt lat="48.784941" lon="13.626141">
        <time>1970-01-01T00:00:00+00:00</time>
        <ele>599.0</ele>
      </trkpt>
      <trkpt lat="48.784982" lon="13.626214">
        <time>1970-01-01T00:00:00+00:00</time>
        <ele>598.0</ele>
      </trkpt>
      <trkpt lat="48.785051" lon="13.626248">
        <time>1970-01-01T00:00:00+00:00</time>
        <ele>596.0</ele>
      </trkpt>
      <trkpt lat="48.785119" lon="13.626248">
        <time>1970-01-01T00:00:00+00:00</time>
        <ele>594.0</ele>
      </trkpt>
      <trkpt lat="48.785316" lon="13.626151">
        <time>1970-01-01T00:00:00+00:00</time>
        <ele>590.0</ele>
      </trkpt>
      <trkpt lat="48.785677" lon="13.625825">
        <time>1970-01-01T00:00:00+00:00</time>
        <ele>577.0</ele>
      </trkpt>
      <trkpt lat="48.785803" lon="13.625669">
        <time>1970-01-01T00:00:00+00:00</time>
        <ele>572.0</ele>
      </trkpt>
      <trkpt lat="48.785851" lon="13.625586">
        <time>1970-01-01T00:00:00+00:00</time>
        <ele>570.0</ele>
      </trkpt>
      <trkpt lat="48.785902" lon="13.625533">
        <time>1970-01-01T00:00:00+00:00</time>
        <ele>568.0</ele>
      </trkpt>
      <trkpt lat="48.785955" lon="13.625577">
        <time>1970-01-01T00:00:00+00:00</time>
        <ele>568.0</ele>
      </trkpt>
      <trkpt lat="48.785995" lon="13.625555">
        <time>1970-01-01T00:00:00+00:00</time>
        <ele>568.0</ele>
      </trkpt>
      <trkpt lat="48.78642" lon="13.625161">
        <time>1970-01-01T00:00:00+00:00</time>
        <ele>565.0</ele>
      </trkpt>
      <trkpt lat="48.786515" lon="13.625186">
        <time>1970-01-01T00:00:00+00:00</time>
        <ele>567.0</ele>
      </trkpt>
      <trkpt lat="48.787018" lon="13.625477">
        <time>1970-01-01T00:00:00+00:00</time>
        <ele>577.0</ele>
      </trkpt>
      <trkpt lat="48.786539" lon="13.625948">
        <time>1970-01-01T00:00:00+00:00</time>
        <ele>578.0</ele>
      </trkpt>
      <trkpt lat="48.786101" lon="13.626319">
        <time>1970-01-01T00:00:00+00:00</time>
        <ele>580.0</ele>
      </trkpt>
      <trkpt lat="48.786025" lon="13.626465">
        <time>1970-01-01T00:00:00+00:00</time>
        <ele>584.0</ele>
      </trkpt>
      <trkpt lat="48.786021" lon="13.626752">
        <time>1970-01-01T00:00:00+00:00</time>
        <ele>587.0</ele>
      </trkpt>
      <trkpt lat="48.786168" lon="13.627397">
        <time>1970-01-01T00:00:00+00:00</time>
        <ele>591.0</ele>
      </trkpt>
      <trkpt lat="48.786201" lon="13.627685">
        <time>1970-01-01T00:00:00+00:00</time>
        <ele>592.0</ele>
      </trkpt>
      <trkpt lat="48.786261" lon="13.628679">
        <time>1970-01-01T00:00:00+00:00</time>
        <ele>591.0</ele>
      </trkpt>
      <trkpt lat="48.786343" lon="13.629032">
        <time>1970-01-01T00:00:00+00:00</time>
        <ele>596.0</ele>
      </trkpt>
      <trkpt lat="48.78637" lon="13.629397">
        <time>1970-01-01T00:00:00+00:00</time>
        <ele>600.0</ele>
      </trkpt>
      <trkpt lat="48.78637" lon="13.629759">
        <time>1970-01-01T00:00:00+00:00</time>
        <ele>600.0</ele>
      </trkpt>
      <trkpt lat="48.78632" lon="13.629969">
        <time>1970-01-01T00:00:00+00:00</time>
        <ele>599.0</ele>
      </trkpt>
      <trkpt lat="48.78605" lon="13.630558">
        <time>1970-01-01T00:00:00+00:00</time>
        <ele>593.0</ele>
      </trkpt>
      <trkpt lat="48.785998" lon="13.630895">
        <time>1970-01-01T00:00:00+00:00</time>
        <ele>591.0</ele>
      </trkpt>
      <trkpt lat="48.786015" lon="13.631333">
        <time>1970-01-01T00:00:00+00:00</time>
        <ele>590.0</ele>
      </trkpt>
      <trkpt lat="48.786056" lon="13.631805">
        <time>1970-01-01T00:00:00+00:00</time>
        <ele>594.0</ele>
      </trkpt>
      <trkpt lat="48.786127" lon="13.632174">
        <time>1970-01-01T00:00:00+00:00</time>
        <ele>596.0</ele>
      </trkpt>
      <trkpt lat="48.786121" lon="13.632373">
        <time>1970-01-01T00:00:00+00:00</time>
        <ele>595.0</ele>
      </trkpt>
      <trkpt lat="48.786065" lon="13.63255">
        <time>1970-01-01T00:00:00+00:00</time>
        <ele>593.0</ele>
      </trkpt>
      <trkpt lat="48.785926" lon="13.632965">
        <time>1970-01-01T00:00:00+00:00</time>
        <ele>590.0</ele>
      </trkpt>
      <trkpt lat="48.785767" lon="13.633192">
        <time>1970-01-01T00:00:00+00:00</time>
        <ele>585.0</ele>
      </trkpt>
      <trkpt lat="48.785505" lon="13.633414">
        <time>1970-01-01T00:00:00+00:00</time>
        <ele>581.0</ele>
      </trkpt>
      <trkpt lat="48.785432" lon="13.63356">
        <time>1970-01-01T00:00:00+00:00</time>
        <ele>580.0</ele>
      </trkpt>
      <trkpt lat="48.785404" lon="13.633719">
        <time>1970-01-01T00:00:00+00:00</time>
        <ele>580.0</ele>
      </trkpt>
      <trkpt lat="48.785376" lon="13.63389">
        <time>1970-01-01T00:00:00+00:00</time>
        <ele>580.0</ele>
      </trkpt>
      <trkpt lat="48.785305" lon="13.63414">
        <time>1970-01-01T00:00:00+00:00</time>
        <ele>579.0</ele>
      </trkpt>
      <trkpt lat="48.785207" lon="13.634742">
        <time>1970-01-01T00:00:00+00:00</time>
        <ele>580.0</ele>
      </trkpt>
      <trkpt lat="48.785204" lon="13.634962">
        <time>1970-01-01T00:00:00+00:00</time>
        <ele>580.0</ele>
      </trkpt>
      <trkpt lat="48.785326" lon="13.635334">
        <time>1970-01-01T00:00:00+00:00</time>
        <ele>583.0</ele>
      </trkpt>
      <trkpt lat="48.78527" lon="13.635345">
        <time>1970-01-01T00:00:00+00:00</time>
        <ele>582.0</ele>
      </trkpt>
      <trkpt lat="48.785268" lon="13.635387">
        <time>1970-01-01T00:00:00+00:00</time>
        <ele>582.0</ele>
      </trkpt>
      <trkpt lat="48.78524" lon="13.635476">
        <time>1970-01-01T00:00:00+00:00</time>
        <ele>581.0</ele>
      </trkpt>
      <trkpt lat="48.785207" lon="13.635516">
        <time>1970-01-01T00:00:00+00:00</time>
        <ele>581.0</ele>
      </trkpt>
      <trkpt lat="48.785157" lon="13.635529">
        <time>1970-01-01T00:00:00+00:00</time>
        <ele>580.0</ele>
      </trkpt>
      <trkpt lat="48.785157" lon="13.635529">
        <time>1970-01-01T00:00:00+00:00</time>
        <ele>580.0</ele>
      </trkpt>
      <trkpt lat="48.785207" lon="13.635516">
        <time>1970-01-01T00:00:00+00:00</time>
        <ele>581.0</ele>
      </trkpt>
      <trkpt lat="48.78524" lon="13.635476">
        <time>1970-01-01T00:00:00+00:00</time>
        <ele>581.0</ele>
      </trkpt>
      <trkpt lat="48.785268" lon="13.635387">
        <time>1970-01-01T00:00:00+00:00</time>
        <ele>582.0</ele>
      </trkpt>
      <trkpt lat="48.78527" lon="13.635345">
        <time>1970-01-01T00:00:00+00:00</time>
        <ele>582.0</ele>
      </trkpt>
      <trkpt lat="48.785326" lon="13.635334">
        <time>1970-01-01T00:00:00+00:00</time>
        <ele>583.0</ele>
      </trkpt>
      <trkpt lat="48.785851" lon="13.635895">
        <time>1970-01-01T00:00:00+00:00</time>
        <ele>590.0</ele>
      </trkpt>
      <trkpt lat="48.786128" lon="13.636268">
        <time>1970-01-01T00:00:00+00:00</time>
        <ele>593.0</ele>
      </trkpt>
      <trkpt lat="48.786281" lon="13.636547">
        <time>1970-01-01T00:00:00+00:00</time>
        <ele>587.0</ele>
      </trkpt>
      <trkpt lat="48.786506" lon="13.636609">
        <time>1970-01-01T00:00:00+00:00</time>
        <ele>588.0</ele>
      </trkpt>
      <trkpt lat="48.78709" lon="13.636928">
        <time>1970-01-01T00:00:00+00:00</time>
        <ele>587.0</ele>
      </trkpt>
      <trkpt lat="48.787478" lon="13.637168">
        <time>1970-01-01T00:00:00+00:00</time>
        <ele>589.0</ele>
      </trkpt>
      <trkpt lat="48.787452" lon="13.637283">
        <time>1970-01-01T00:00:00+00:00</time>
        <ele>589.0</ele>
      </trkpt>
      <trkpt lat="48.787386" lon="13.637544">
        <time>1970-01-01T00:00:00+00:00</time>
        <ele>587.0</ele>
      </trkpt>
      <trkpt lat="48.786986" lon="13.639047">
        <time>1970-01-01T00:00:00+00:00</time>
        <ele>591.0</ele>
      </trkpt>
      <trkpt lat="48.78669" lon="13.64009">
        <time>1970-01-01T00:00:00+00:00</time>
        <ele>599.0</ele>
      </trkpt>
      <trkpt lat="48.786534" lon="13.640527">
        <time>1970-01-01T00:00:00+00:00</time>
        <ele>601.0</ele>
      </trkpt>
      <trkpt lat="48.78596" lon="13.641811">
        <time>1970-01-01T00:00:00+00:00</time>
        <ele>604.0</ele>
      </trkpt>
      <trkpt lat="48.78472" lon="13.645242">
        <time>1970-01-01T00:00:00+00:00</time>
        <ele>610.0</ele>
      </trkpt>
      <trkpt lat="48.78412" lon="13.647463">
        <time>1970-01-01T00:00:00+00:00</time>
        <ele>615.0</ele>
      </trkpt>
      <trkpt lat="48.784056" lon="13.647656">
        <time>1970-01-01T00:00:00+00:00</time>
        <ele>615.0</ele>
      </trkpt>
      <trkpt lat="48.783865" lon="13.647904">
        <time>1970-01-01T00:00:00+00:00</time>
        <ele>614.0</ele>
      </trkpt>
      <trkpt lat="48.783713" lon="13.648232">
        <time>1970-01-01T00:00:00+00:00</time>
        <ele>615.0</ele>
      </trkpt>
      <trkpt lat="48.78354" lon="13.648902">
        <time>1970-01-01T00:00:00+00:00</time>
        <ele>615.0</ele>
      </trkpt>
      <trkpt lat="48.782558" lon="13.64871">
        <time>1970-01-01T00:00:00+00:00</time>
        <ele>612.0</ele>
      </trkpt>
      <trkpt lat="48.782228" lon="13.648585">
        <time>1970-01-01T00:00:00+00:00</time>
        <ele>614.0</ele>
      </trkpt>
      <trkpt lat="48.781888" lon="13.648402">
        <time>1970-01-01T00:00:00+00:00</time>
        <ele>616.0</ele>
      </trkpt>
      <trkpt lat="48.781395" lon="13.647934">
        <time>1970-01-01T00:00:00+00:00</time>
        <ele>618.0</ele>
      </trkpt>
      <trkpt lat="48.780972" lon="13.647169">
        <time>1970-01-01T00:00:00+00:00</time>
        <ele>618.0</ele>
      </trkpt>
      <trkpt lat="48.780783" lon="13.64682">
        <time>1970-01-01T00:00:00+00:00</time>
        <ele>615.0</ele>
      </trkpt>
      <trkpt lat="48.78064" lon="13.646613">
        <time>1970-01-01T00:00:00+00:00</time>
        <ele>614.0</ele>
      </trkpt>
      <trkpt lat="48.780312" lon="13.64624">
        <time>1970-01-01T00:00:00+00:00</time>
        <ele>614.0</ele>
      </trkpt>
      <trkpt lat="48.780002" lon="13.645984">
        <time>1970-01-01T00:00:00+00:00</time>
        <ele>615.0</ele>
      </trkpt>
      <trkpt lat="48.779583" lon="13.645652">
        <time>1970-01-01T00:00:00+00:00</time>
        <ele>618.0</ele>
      </trkpt>
      <trkpt lat="48.77819" lon="13.644473">
        <time>1970-01-01T00:00:00+00:00</time>
        <ele>629.0</ele>
      </trkpt>
      <trkpt lat="48.777958" lon="13.644268">
        <time>1970-01-01T00:00:00+00:00</time>
        <ele>631.0</ele>
      </trkpt>
      <trkpt lat="48.777012" lon="13.643483">
        <time>1970-01-01T00:00:00+00:00</time>
        <ele>637.0</ele>
      </trkpt>
      <trkpt lat="48.776819" lon="13.643301">
        <time>1970-01-01T00:00:00+00:00</time>
        <ele>639.0</ele>
      </trkpt>
      <trkpt lat="48.776562" lon="13.642985">
        <time>1970-01-01T00:00:00+00:00</time>
        <ele>640.0</ele>
      </trkpt>
      <trkpt lat="48.776184" lon="13.642497">
        <time>1970-01-01T00:00:00+00:00</time>
        <ele>643.0</ele>
      </trkpt>
      <trkpt lat="48.776064" lon="13.64237">
        <time>1970-01-01T00:00:00+00:00</time>
        <ele>645.0</ele>
      </trkpt>
      <trkpt lat="48.775965" lon="13.642309">
        <time>1970-01-01T00:00:00+00:00</time>
        <ele>647.0</ele>
      </trkpt>
      <trkpt lat="48.77542" lon="13.642267">
        <time>1970-01-01T00:00:00+00:00</time>
        <ele>654.0</ele>
      </trkpt>
      <trkpt lat="48.775059" lon="13.642275">
        <time>1970-01-01T00:00:00+00:00</time>
        <ele>655.0</ele>
      </trkpt>
      <trkpt lat="48.774827" lon="13.642304">
        <time>1970-01-01T00:00:00+00:00</time>
        <ele>654.0</ele>
      </trkpt>
      <trkpt lat="48.774202" lon="13.641978">
        <time>1970-01-01T00:00:00+00:00</time>
        <ele>652.0</ele>
      </trkpt>
      <trkpt lat="48.77364" lon="13.641795">
        <time>1970-01-01T00:00:00+00:00</time>
        <ele>653.0</ele>
      </trkpt>
      <trkpt lat="48.773389" lon="13.641673">
        <time>1970-01-01T00:00:00+00:00</time>
        <ele>653.0</ele>
      </trkpt>
      <trkpt lat="48.77303" lon="13.64126">
        <time>1970-01-01T00:00:00+00:00</time>
        <ele>653.0</ele>
      </trkpt>
      <trkpt lat="48.772602" lon="13.640622">
        <time>1970-01-01T00:00:00+00:00</time>
        <ele>650.0</ele>
      </trkpt>
      <trkpt lat="48.772528" lon="13.640423">
        <time>1970-01-01T00:00:00+00:00</time>
        <ele>645.0</ele>
      </trkpt>
      <trkpt lat="48.772436" lon="13.640327">
        <time>1970-01-01T00:00:00+00:00</time>
        <ele>642.0</ele>
      </trkpt>
      <trkpt lat="48.772298" lon="13.640311">
        <time>1970-01-01T00:00:00+00:00</time>
        <ele>639.0</ele>
      </trkpt>
      <trkpt lat="48.772047" lon="13.640396">
        <time>1970-01-01T00:00:00+00:00</time>
        <ele>636.0</ele>
      </trkpt>
      <trkpt lat="48.771937" lon="13.640471">
        <time>1970-01-01T00:00:00+00:00</time>
        <ele>634.0</ele>
      </trkpt>
      <trkpt lat="48.771817" lon="13.640488">
        <time>1970-01-01T00:00:00+00:00</time>
        <ele>632.0</ele>
      </trkpt>
      <trkpt lat="48.7714" lon="13.640412">
        <time>1970-01-01T00:00:00+00:00</time>
        <ele>624.0</ele>
      </trkpt>
      <trkpt lat="48.771022" lon="13.640289">
        <time>1970-01-01T00:00:00+00:00</time>
        <ele>617.0</ele>
      </trkpt>
      <trkpt lat="48.770665" lon="13.640069">
        <time>1970-01-01T00:00:00+00:00</time>
        <ele>612.0</ele>
      </trkpt>
      <trkpt lat="48.770404" lon="13.639845">
        <time>1970-01-01T00:00:00+00:00</time>
        <ele>611.0</ele>
      </trkpt>
      <trkpt lat="48.770323" lon="13.639178">
        <time>1970-01-01T00:00:00+00:00</time>
        <ele>606.0</ele>
      </trkpt>
      <trkpt lat="48.770293" lon="13.638499">
        <time>1970-01-01T00:00:00+00:00</time>
        <ele>601.0</ele>
      </trkpt>
      <trkpt lat="48.770312" lon="13.6376">
        <time>1970-01-01T00:00:00+00:00</time>
        <ele>598.0</ele>
      </trkpt>
      <trkpt lat="48.770498" lon="13.636333">
        <time>1970-01-01T00:00:00+00:00</time>
        <ele>592.0</ele>
      </trkpt>
      <trkpt lat="48.770482" lon="13.636155">
        <time>1970-01-01T00:00:00+00:00</time>
        <ele>590.0</ele>
      </trkpt>
      <trkpt lat="48.770407" lon="13.635874">
        <time>1970-01-01T00:00:00+00:00</time>
        <ele>588.0</ele>
      </trkpt>
      <trkpt lat="48.770027" lon="13.634786">
        <time>1970-01-01T00:00:00+00:00</time>
        <ele>583.0</ele>
      </trkpt>
      <trkpt lat="48.769649" lon="13.633805">
        <time>1970-01-01T00:00:00+00:00</time>
        <ele>589.0</ele>
      </trkpt>
      <trkpt lat="48.76945" lon="13.633337">
        <time>1970-01-01T00:00:00+00:00</time>
        <ele>587.0</ele>
      </trkpt>
      <trkpt lat="48.769229" lon="13.632959">
        <time>1970-01-01T00:00:00+00:00</time>
        <ele>581.0</ele>
      </trkpt>
      <trkpt lat="48.769034" lon="13.6328">
        <time>1970-01-01T00:00:00+00:00</time>
        <ele>576.0</ele>
      </trkpt>
      <trkpt lat="48.76834" lon="13.632659">
        <time>1970-01-01T00:00:00+00:00</time>
        <ele>568.0</ele>
      </trkpt>
      <trkpt lat="48.769047" lon="13.631781">
        <time>1970-01-01T00:00:00+00:00</time>
        <ele>569.0</ele>
      </trkpt>
      <trkpt lat="48.769196" lon="13.631685">
        <time>1970-01-01T00:00:00+00:00</time>
        <ele>570.0</ele>
      </trkpt>
      <trkpt lat="48.769231" lon="13.631493">
        <time>1970-01-01T00:00:00+00:00</time>
        <ele>570.0</ele>
      </trkpt>
    </trkseg>
  </trk>
</gpx>
